Terug naar catalogus

KUIPER-00104

ActiefCommunicatieLEO
NORAD 65142·PAYLOAD·🇺🇸 United States

Gelanceerd Aug 11, 2025 vanaf Cape Canaveral Space Force Station

Loading…

Volgende Passages (komende 24 uur)

TLE

VersSource: CelesTrak SupGP

Epoch: Sep 14, 2026, 19:41 UTC

1 65142C 25171L   26257.82019676 -.00002280  00000+0 -29854-3 0  2576
2 65142  51.9023  41.7288 0000570 107.1159  28.8188 14.79925066    11

Volg KUIPER-00104 in realtime met AllMySat

Download on the App Store